User: anonymous
Location: Unspecified
(0.0000°N, 0.0000°E)
Time: 23:17:38
(UTC+02:00)
Language:

CZ-2C R/B - Orbit

View from above orbital plane
View from above orbital plane
View from above satellite
View from above satellite

Ground track
Ground track

The orbit data is extracted from the following two-line orbital elements,

1 28480U 04046B   14244.52954877  .00000081  00000-0  46264-4 0  4189
2 28480 098.1000 034.6682 0142163 356.6099 044.1936 14.25325363508965
Epoch (UTC): 01 September 2014 12:42:33
Eccentricity: 0.0142163
inclination: 98.1000°
perigee height: 705 km
apogee height: 909 km
right ascension of ascending node: 34.6682°
argument of perigee: 356.6099°
revolutions per day: 14.25325363
mean anomaly at epoch: 44.1936°
orbit number at epoch: 50896

The dashed part of the orbit path shows where the satellite is in the earth's shadow,  

DLR